{"data":{"norad_id":53018,"intl_designator":"2022-076AJ","name":"STARLINK-4279","alt_names":[],"object_type":"PAYLOAD","status":"ACTIVE","operator":null,"country":"US","launch_date":"2022-07-07","launch_site_code":"AFETR","launch_vehicle":null,"mission":null,"orbit_class":"UNKNOWN","rcs_meters":null,"size_class":null,"mass_kg":null,"dimensions":null,"purposes":["comms"],"wikipedia_slug":null,"has_3d_model":false,"image_url":null,"decayed_at":null,"tle_current":{"epoch":"2026-05-25T02:45:16.719840Z","epoch_age_seconds":72014,"freshness":"FRESH","line1":"1 53018U 22076AJ  26145.11477685  .00174401  00000+0  44206-2 0  9995","line2":"2 53018  53.2167  95.2238 0000859 109.1341 250.9758 15.38568001214609","mean_motion":15.38568001,"eccentricity":8.59e-5,"inclination_deg":53.2167,"raan_deg":95.2238,"arg_perigee_deg":109.1341,"mean_anomaly_deg":250.9758,"bstar":0.0044206,"rev_number":21460,"period_min":93.593523267354,"perigee_km":449.75647130548,"apogee_km":450.92960417597,"semimajor_km":6828.4800377407,"source":"CELESTRAK","updated_at":"2026-05-25T13:38:17.280490Z"}}}